Location: Theydon Bois
(51.6750°N, 0.1050°E)
Time: 20:32:20
(UTC+00:00)

GP-B - Visible Passes

Search period start: 23 February 2018 00:00
Search period end: 05 March 2018 00:00
Orbit: 632 x 635 km, 89.8° (Epoch: 23 February)

Date Brightness Start Highest point End Pass type
(mag) Time Alt. Az. Time Alt. Az. Time Alt. Az.
27 Feb 5.7 20:41:47 11° NNE 20:41:47 11° NNE 20:41:58 10° NNE visible
28 Feb 5.7 21:03:21 14° N 21:03:21 14° N 21:03:57 10° N visible
01 Mar 5.7 21:24:52 16° N 21:24:52 16° N 21:25:45 10° N visible
02 Mar 5.3 20:08:57 14° NNE 20:08:57 14° NNE 20:09:43 10° NNE visible
02 Mar 5.8 21:46:23 16° NNW 21:46:23 16° NNW 21:47:23 10° NNW visible
03 Mar 5.1 20:30:27 19° NNE 20:30:27 19° NNE 20:31:51 10° N visible
03 Mar 6.0 22:07:53 14° NNW 22:07:53 14° NNW 22:08:48 10° NNW visible
04 Mar 4.9 20:51:56 24° N 20:51:56 24° N 20:53:47 10° N visible
04 Mar 6.2 22:29:22 11° NW 22:29:22 11° NW 22:29:47 10° NW visible
